Theta_e
306 305 304 303 303 303 302 302 301 300 300 299 299 299 299 299 300 300 302 304 304 305 304 304 312 311 311 313 313 313 315 315 315 314 315 314 316 315 316 316 317 317 317 318 321
303 303 303 303 303 303 303 303 302 302 301 300 299 299 298 299 299 301 303 305 307 304 304 304 310 313 312 313 313 315 314 314 314 314 315 315 315 315 316 316 317 316 317 318 318
300 302 302 302 302 302 302 302 302 302 302 301 300 299 298 298 298 303 308 309 309 309 302 304 306 313 313 313 314 315 315 313 313 313 313 314 314 314 316 317 317 317 317 318 318
299 300 301 301 301 301 301 301 301 301 301 302 301 299 298 298 301 305 310 309 308 306 302 305 310 314 314 315 314 315 314 314 314 314 315 316 315 316 316 317 317 317 318 318 318
295 297 298 299 299 301 300 300 300 299 299 300 301 300 299 301 302 302 302 303 302 306 303 309 311 311 312 310 312 315 315 314 315 315 314 315 316 316 315 316 317 317 318 318 318
299 298 299 300 300 300 300 300 300 300 299 299 300 299 301 301 301 301 301 301 302 302 305 307 310 311 310 309 310 310 311 313 314 315 315 316 316 315 315 316 317 318 318 318 318
299 299 299 299 299 300 300 300 300 299 298 299 299 300 301 300 300 301 300 300 302 303 307 308 310 309 309 310 310 311 312 312 312 312 314 314 316 316 316 316 316 317 318 318 318
297 297 297 297 298 298 298 298 299 299 299 299 298 300 301 299 299 299 300 300 299 300 303 306 311 311 311 312 311 315 315 315 315 314 314 315 318 317 317 315 315 315 316 317 317
295 296 296 296 297 297 297 297 298 298 299 299 304 301 301 298 299 305 305 303 302 300 301 303 304 307 307 310 313 313 316 316 316 314 316 316 317 316 314 315 315 314 315 315 315
295 295 295 295 296 296 296 297 297 299 303 303 302 301 299 298 302 307 309 309 307 304 302 303 305 309 309 309 310 311 314 314 316 316 315 317 317 316 315 313 313 314 314 314 313
295 295 295 296 296 296 297 297 298 299 300 301 301 301 302 306 307 309 308 308 306 304 303 304 306 308 309 309 309 311 312 313 314 314 315 317 317 315 314 314 314 314 313 312 312
295 295 295 296 296 296 297 297 298 298 297 298 298 300 302 303 304 305 307 308 307 306 305 305 307 308 307 308 309 311 311 313 312 312 313 314 314 312 311 311 311 311 310 310 314
295 295 295 295 295 297 297 297 297 297 298 298 299 302 302 302 303 303 305 307 308 307 305 307 307 307 306 307 309 310 311 312 312 310 308 308 309 309 309 308 309 310 311 313 314
295 295 295 294 296 297 298 297 297 297 299 300 304 304 304 304 304 303 303 304 308 309 306 306 307 306 306 306 307 307 308 310 311 310 310 308 309 310 311 311 312 313 313 314 319
294 294 294 294 297 297 297 297 297 297 301 301 304 303 304 304 304 305 304 304 306 309 310 311 311 309 307 306 307 307 307 309 309 308 307 308 310 311 310 313 313 314 316 320 319
293 294 294 295 296 297 297 297 297 298 302 304 305 305 305 304 305 304 305 304 305 307 306 309 306 309 310 307 307 307 307 308 307 308 312 310 312 312 313 313 316 318 319 319 318
294 294 295 295 296 296 297 297 298 301 302 303 304 306 307 307 308 306 304 304 304 306 306 304 306 306 307 308 306 309 312 313 316 313 314 310 310 313 314 316 320 320 318 317 316
295 295 296 297 297 297 297 298 300 304 300 301 303 307 307 307 308 309 305 307 310 307 303 303 303 305 306 309 309 309 311 313 313 317 314 312 313 314 315 318 317 317 316 316 317
294 295 296 297 298 297 296 298 300 302 301 300 301 304 306 306 308 311 310 311 310 310 308 307 306 304 305 306 309 308 309 311 312 313 314 314 315 314 319 319 318 317 317 317 317
294 295 296 297 297 296 294 297 300 301 300 300 301 302 305 304 308 311 311 309 310 308 309 309 310 309 308 306 306 309 310 311 312 313 313 313 314 314 317 317 318 317 318 316 316
295 295 296 297 297 295 294 296 298 298 298 300 301 302 305 304 305 309 308 307 307 308 309 309 310 310 309 309 307 307 307 310 311 313 311 312 312 312 317 317 318 318 318 316 316
295 293 295 296 296 294 296 297 298 297 299 300 301 303 303 304 304 306 307 307 306 307 310 309 311 313 310 309 312 309 309 309 310 312 313 312 312 317 316 316 318 319 318 317 317
295 294 295 297 294 297 298 298 299 300 300 301 301 301 302 303 303 305 306 307 307 308 309 309 311 314 313 314 311 313 312 310 311 311 312 313 313 315 317 318 318 318 319 318 316
295 292 294 296 296 297 298 298 299 299 300 301 301 301 302 302 304 304 305 306 306 307 309 308 309 311 311 311 311 311 312 312 313 314 313 313 313 316 318 318 319 319 319 319 317
294 292 293 292 298 297 297 298 300 300 300 300 301 300 301 303 303 304 305 304 305 307 308 309 310 309 310 310 311 311 311 311 312 311 313 312 313 312 316 318 318 317 317 316 314
294 292 294 295 295 296 297 297 299 298 299 301 299 299 300 302 303 304 303 304 305 306 308 307 309 308 311 310 310 309 309 312 312 312 313 313 313 315 316 316 313 313 313 312 310
294 294 294 294 294 296 297 298 298 298 297 299 298 299 300 302 302 303 303 303 304 304 306 308 309 309 309 310 308 308 309 311 312 314 315 313 314 314 315 313 310 309 308 307 306
Wind_Speed
16 17 18 19 21 22 23 24 25 26 27 27 27 29 29 30 29 28 28 24 23 20 17 20 12 21 16 13 11 8 5 10 14 10 7 5 4 4 2 3 8 1 6 11 8
15 16 18 20 21 23 24 24 25 26 28 28 28 28 30 32 32 32 26 20 22 21 21 23 22 20 12 11 11 7 8 13 6 9 6 3 3 2 2 4 5 9 6 12 12
16 17 17 19 21 23 24 26 27 28 29 29 30 30 28 28 29 10 3 4 11 17 24 23 23 24 10 9 11 7 15 7 8 14 8 10 9 7 6 9 11 10 12 16 13
16 17 18 19 22 24 26 27 27 29 29 30 30 32 31 23 7 3 6 4 11 5 18 19 23 15 9 10 10 7 10 14 6 11 10 9 10 10 13 14 25 20 19 20 17
16 18 18 21 23 25 28 29 30 32 32 30 30 30 29 13 24 26 24 19 23 11 15 15 18 18 11 8 8 9 9 9 16 20 16 16 18 19 15 18 29 27 19 18 15
15 16 17 19 22 24 27 29 32 35 33 32 29 29 22 19 27 16 8 13 16 18 16 19 11 20 8 8 13 4 13 18 17 21 14 16 20 10 10 18 23 21 24 20 19
16 16 17 19 22 25 26 29 33 35 37 31 29 31 26 46 22 28 27 26 13 15 18 18 21 11 8 3 9 6 8 9 12 11 8 7 16 15 24 25 23 25 26 23 21
18 20 21 22 24 26 29 32 35 36 38 35 34 22 22 22 26 36 33 33 30 25 21 17 13 17 10 7 3 4 4 9 4 15 11 11 22 5 4 11 11 13 11 11 8
17 19 21 23 25 27 31 34 35 36 36 32 20 16 16 15 17 7 9 18 17 24 27 16 8 7 4 10 7 5 8 5 4 11 7 17 17 2 5 1 5 6 8 11 16
17 19 21 23 25 27 31 33 34 23 19 10 6 7 19 8 7 10 10 8 4 11 13 15 7 7 8 10 15 12 7 8 9 4 7 12 16 10 15 7 8 14 17 20 20
17 19 21 22 25 28 30 34 20 12 9 14 20 20 20 6 7 6 3 5 7 8 9 17 10 17 21 17 11 5 12 15 3 2 4 13 18 11 12 17 18 22 20 20 22
18 19 21 23 27 27 24 18 12 17 20 32 39 41 45 38 15 13 7 10 10 6 9 7 20 15 11 10 14 15 17 14 5 7 7 16 21 15 13 17 25 22 20 22 18
17 19 22 25 24 22 27 17 15 33 11 32 42 31 33 33 24 33 11 5 7 11 16 11 6 16 11 10 13 14 18 13 13 4 7 8 19 14 5 13 14 14 15 12 10
17 18 21 25 13 23 15 15 22 24 6 10 4 8 14 13 10 37 21 15 5 13 13 12 11 5 11 17 13 16 11 12 9 5 8 2 8 5 10 7 5 7 4 4 6
17 19 19 18 18 19 16 20 25 10 5 7 3 0 6 13 5 7 20 16 12 8 8 9 7 14 11 9 15 8 9 12 11 9 6 8 6 2 3 6 1 1 5 3 8
17 19 18 14 16 18 20 21 9 1 6 11 8 11 3 11 3 7 6 6 10 6 2 4 2 6 8 6 17 7 5 3 3 3 6 10 9 3 7 6 2 2 2 6 9
15 17 14 14 16 14 15 16 2 3 14 10 10 8 8 5 3 2 11 6 5 9 11 4 4 1 3 6 6 6 7 3 4 5 6 9 9 7 3 1 3 2 6 9 13
16 14 11 11 14 12 13 2 4 5 10 15 12 11 8 13 8 6 9 4 13 4 4 11 8 15 10 6 8 11 11 5 6 5 1 5 6 2 2 9 5 3 5 10 13
16 11 10 14 13 7 6 3 2 6 11 16 14 9 11 13 6 4 9 5 6 9 2 5 2 4 4 11 9 5 9 1 2 2 2 4 5 4 6 4 3 2 3 11 18
16 9 15 13 7 6 4 4 3 3 12 11 9 8 12 16 10 6 6 5 6 10 2 2 1 1 2 6 4 5 8 6 3 4 6 5 6 5 10 6 3 2 6 12 16
12 4 9 6 6 5 3 3 5 11 12 5 7 7 10 9 9 7 9 7 9 11 5 4 2 1 1 1 6 5 4 1 3 4 3 2 2 3 5 3 2 3 3 10 16
6 2 7 8 5 2 2 4 8 6 7 4 3 5 5 8 7 8 8 6 11 7 4 3 1 2 3 2 0 3 7 9 5 4 4 6 7 2 4 6 4 4 4 7 15
3 3 6 6 2 3 4 4 4 5 5 6 4 6 6 4 4 5 6 5 10 6 5 4 1 2 4 2 3 2 1 3 3 1 9 6 2 3 6 9 6 8 9 3 14
2 3 4 5 3 2 4 4 6 6 4 5 4 4 6 4 2 4 5 3 9 6 12 1 1 2 1 3 2 1 1 1 3 4 4 7 5 3 8 10 9 12 9 6 11
1 1 0 2 1 3 3 3 8 6 4 7 1 8 7 4 5 3 2 7 7 7 5 4 2 2 7 4 4 4 5 2 3 1 5 2 2 4 6 7 9 12 15 15 17
4 3 1 3 5 3 2 2 2 6 2 4 5 13 8 3 4 9 9 5 3 5 4 4 1 1 2 5 4 4 6 6 7 4 7 9 7 7 6 9 12 14 15 16 18
9 6 1 2 2 0 2 3 4 8 5 7 6 13 10 3 14 20 18 15 11 8 3 3 3 3 1 2 6 5 6 8 3 2 2 4 3 7 7 9 13 15 15 17 20
Wind_Direction
337 337 336 337 337 336 335 335 334 333 333 329 320 315 309 307 303 300 293 290 281 272 255 238 220 190 196 192 192 181 225 225 226 223 231 199 185 179 205 283 322 205 340 342 339
326 325 327 330 330 330 330 331 332 332 334 331 326 314 312 309 309 300 300 281 270 244 230 225 204 198 186 192 194 194 222 224 221 224 243 194 197 194 305 322 294 277 297 337 327
319 326 329 326 326 326 325 325 326 328 328 328 328 325 314 311 321 295 254 308 291 240 221 223 222 191 189 181 188 201 236 217 221 229 234 255 257 252 257 278 262 282 315 316 303
316 314 322 324 324 323 321 321 322 323 324 324 325 326 318 310 277 260 241 288 357 317 212 210 202 191 194 201 199 226 231 230 232 243 236 242 256 245 229 253 276 277 293 292 288
326 327 319 323 322 324 323 321 319 317 315 317 322 321 318 288 252 266 267 269 282 282 227 208 198 198 199 196 204 237 232 212 233 248 250 253 250 255 252 259 277 280 278 277 276
350 342 337 335 330 328 328 324 319 316 313 313 314 312 305 266 284 280 272 261 256 251 248 220 217 217 226 210 201 208 226 251 250 249 253 257 258 246 239 257 264 270 274 271 274
348 344 338 335 329 327 326 321 316 316 317 310 305 303 273 252 269 280 271 267 252 227 229 228 227 209 226 240 235 239 256 256 238 242 238 238 261 249 255 247 244 258 268 267 267
332 330 329 327 325 321 319 316 314 316 317 301 296 275 258 270 279 269 265 260 253 243 229 222 226 245 246 273 279 213 203 248 200 205 221 207 262 216 327 213 239 253 268 270 254
327 327 326 323 321 320 315 316 313 315 307 295 273 220 264 273 267 292 261 260 247 234 230 226 249 226 194 223 254 216 236 209 239 192 195 209 267 252 130 5 269 271 278 280 290
331 333 333 332 327 322 315 314 317 323 310 299 226 206 244 243 274 288 298 248 210 197 175 209 223 212 213 197 224 233 232 242 237 173 222 237 249 265 294 314 294 291 286 286 285
337 338 340 337 335 334 328 336 348 325 303 288 286 257 293 253 296 199 127 151 159 162 158 186 202 215 206 211 228 257 238 249 220 225 278 255 266 273 277 286 273 268 267 271 274
338 341 341 336 339 341 345 3 359 327 297 282 275 268 260 267 285 244 239 190 176 164 139 157 221 221 197 198 214 233 248 247 258 269 266 275 278 285 262 258 259 260 261 264 269
344 346 344 334 336 346 348 347 337 328 297 288 262 249 237 239 230 250 213 205 186 173 187 189 187 208 196 191 204 221 234 242 247 260 264 281 284 262 249 244 255 250 258 272 294
345 343 340 339 348 342 17 357 342 336 286 282 236 260 215 207 226 234 226 207 207 188 174 219 220 144 201 224 202 233 214 223 228 247 256 221 287 274 286 247 227 245 285 337 348
342 336 337 343 336 337 339 342 337 343 282 347 331 135 198 185 313 194 206 195 201 167 173 205 173 200 200 205 187 229 183 197 206 222 252 229 273 293 189 239 240 141 100 17 343
336 342 338 337 344 344 336 334 337 10 261 342 329 342 187 233 290 121 155 177 174 157 82 179 139 160 204 169 173 157 132 112 100 157 243 210 221 209 218 228 135 103 34 355 349
344 346 346 339 328 325 331 339 34 251 338 347 328 311 310 349 53 135 160 150 140 182 203 166 207 151 174 104 169 158 160 182 188 204 242 200 215 259 237 94 132 25 4 347 342
352 352 5 18 347 340 342 343 10 344 354 316 349 347 21 11 10 21 136 94 33 1 147 204 236 204 196 185 172 186 186 189 204 202 201 138 229 232 172 129 114 73 352 346 343
354 7 30 347 346 31 29 20 2 359 331 328 334 5 7 358 359 67 71 56 37 15 67 155 257 159 176 202 176 181 211 213 34 98 289 219 231 229 160 159 147 135 355 358 353
354 10 13 4 48 21 73 295 340 296 321 328 345 20 8 2 18 23 49 19 3 3 343 357 135 148 118 142 176 188 156 167 206 216 229 232 237 227 205 202 178 326 350 355 347
356 49 23 46 1 40 83 282 294 310 329 322 326 324 355 2 347 15 14 67 13 344 357 344 343 276 18 78 147 181 219 152 196 227 264 292 236 223 177 218 245 252 309 355 346
5 51 340 339 31 86 356 298 300 303 343 313 296 289 350 332 345 17 18 32 11 335 350 358 335 233 217 348 200 173 187 198 216 193 227 261 274 103 7 292 281 284 293 345 350
5 351 12 15 52 2 331 296 279 312 331 325 315 1 316 310 337 356 347 350 4 12 3 348 28 192 143 107 45 52 252 210 128 148 225 240 221 110 42 44 23 324 317 332 1
7 27 19 36 45 2 340 307 319 302 285 295 324 1 345 324 282 310 336 324 330 12 344 282 6 311 226 80 22 242 212 279 200 187 199 238 267 15 29 16 15 14 38 23 8
77 58 70 324 192 304 298 281 309 351 321 351 84 11 338 309 320 354 332 333 330 11 1 358 158 274 291 257 223 248 224 215 231 196 215 162 229 331 20 2 14 13 14 12 4
159 137 159 284 293 323 290 268 338 329 293 311 359 334 329 275 303 308 317 322 281 329 349 359 5 226 249 246 263 250 246 237 257 261 259 272 285 19 22 43 24 23 14 10 356
201 196 149 278 290 341 248 290 334 352 293 269 339 324 317 287 310 285 268 259 256 286 315 312 304 334 84 218 291 242 243 208 162 106 329 280 14 22 34 49 32 21 20 11 4